Date,TemperatureHighF,TemperatureAvgF,TemperatureLowF,DewpointHighF,DewpointAvgF,DewpointLowF,HumidityHigh,HumidityAvg,HumidityLow,PressureMaxIn,PressureMinIn,WindSpeedMaxMPH,WindSpeedAvgMPH,GustSpeedMaxMPH,PrecipitationSumIn
2013-2-1,64.9,41.0,31.1,-99.9,-99.9,-99.9,0,0,100,20.00,20.00,8,2,9,0.00
2013-2-2,39.3,32.5,26.4,-99.9,-99.9,-99.9,0,0,100,20.00,20.00,7,2,9,0.00
2013-2-3,43.3,36.8,31.5,-99.9,-99.9,-99.9,0,0,100,20.00,20.00,14,4,14,0.00
2013-2-4,45.1,39.9,37.1,-99.9,-99.9,-99.9,0,0,100,20.00,20.00,11,3,11,0.00
2013-2-5,48.8,40.3,37.0,-99.9,-99.9,-99.9,0,0,100,20.00,20.00,22,11,22,0.00
2013-2-6,42.2,39.0,36.9,-99.9,-99.9,-99.9,0,0,100,20.00,20.00,19,8,19,0.00
2013-2-7,46.6,36.9,27.6,-99.9,-99.9,-99.9,0,0,100,20.00,20.00,21,6,21,0.00
2013-2-8,44.2,32.3,23.3,-99.9,-99.9,-99.9,0,0,100,20.00,20.00,4,1,9,0.00
2013-2-9,41.4,35.6,32.4,-99.9,-99.9,-99.9,0,0,100,20.00,20.00,7,1,9,0.00
2013-2-10,41.6,33.9,26.2,-99.9,-99.9,-99.9,0,0,100,20.00,20.00,7,2,9,0.00
2013-2-11,38.9,35.5,32.7,-99.9,-99.9,-99.9,0,0,100,20.00,20.00,11,3,11,0.00
2013-2-12,43.0,39.4,34.7,-99.9,-99.9,-99.9,0,0,100,20.00,20.00,13,4,13,0.00
2013-2-13,44.4,39.8,36.7,-99.9,-99.9,-99.9,0,0,100,20.00,20.00,11,3,11,0.00
2013-2-14,43.7,39.1,35.6,-99.9,-99.9,-99.9,0,0,100,20.00,20.00,15,4,15,0.00
2013-2-15,60.9,41.3,30.8,-99.9,-99.9,-99.9,0,0,100,20.00,20.00,11,2,11,0.00
2013-2-16,44.2,37.4,31.1,-99.9,-99.9,-99.9,0,0,100,20.00,20.00,22,5,22,0.00
2013-2-17,41.1,35.6,29.7,-99.9,-99.9,-99.9,0,0,100,20.00,20.00,10,3,10,0.00
2013-2-18,41.3,34.1,27.8,-99.9,-99.9,-99.9,0,0,100,20.00,20.00,11,3,11,0.00
2013-2-19,59.6,39.5,29.2,-99.9,-99.9,-99.9,0,0,100,20.00,20.00,16,3,16,0.00
2013-2-20,40.3,33.2,28.2,-99.9,-99.9,-99.9,0,0,100,20.00,20.00,16,3,16,0.00
2013-2-21,38.7,34.8,31.3,-99.9,-99.9,-99.9,0,0,100,20.00,20.00,15,6,15,0.00
2013-2-22,40.6,34.5,27.8,-99.9,-99.9,-99.9,0,0,100,20.00,20.00,29,10,29,0.00
2013-2-23,51.4,36.9,29.9,-99.9,-99.9,-99.9,0,0,100,20.00,20.00,17,5,17,0.00
2013-2-24,43.5,37.3,33.0,-99.9,-99.9,-99.9,0,0,100,20.00,20.00,19,9,19,0.00
2013-2-25,49.5,38.2,32.5,-99.9,-99.9,-99.9,0,0,100,20.00,20.00,22,8,22,0.00
2013-2-26,44.3,36.1,28.4,-99.9,-99.9,-99.9,0,0,100,20.00,20.00,20,6,20,0.00
2013-2-27,50.7,38.6,33.6,-99.9,-99.9,-99.9,0,0,100,20.00,20.00,12,4,17,0.00
2013-2-28,45.7,38.8,34.1,-99.9,-99.9,-99.9,0,0,100,20.00,20.00,21,7,21,0.00